Starlink 32040

operational
NORAD ID: 60109 Int'l Des: 2024-117 Owner: SPXS Country: US Constellation: starlink
LEOCIRCULAR

关于 Starlink 32040

正在加载描述...

实时位置

正在加载3D地球...

即将过境

高度历史

Altitude vs Time

uPlot chart will show altitude changes over time

两行轨道根数

1 60109U 24117U 25304.24986498 -.00001886 00000-0 -51633-4 0 9992
2 60109 53.1607 278.0076 0001477 93.5519 266.5650 15.30156258 77078
Epoch: Oct 31, 2025 • Age: 14 hours

当前状态

高度 494.9 km
速度 7.62 km/s
星下点 -53.31°S, 151.02°W
发射日期 Jun 23, 2024
运行时间 1.3 years
类型 internet

技术详情

分类 Payload
质量 730.00 kg
干质量 700.00 kg
总质量 730.00 kg
长度 0.30 m
直径 4.10 m
跨度 29.00 m
形状 Box + pan
制造商 SPXS
平台类型 Starlink V2M
阶段状态 In Orbit
所有者/国家 SPXS/US

大型星座

Loading constellations...